Location: Beddau
(51.5575°N, 3.3561°W)
Time: 12:04:07
(UTC+00:00)

Cosmos 2333 Rocket - Pass Details

Date: 03 March 2021
Orbit: 837 x 864 km, 70.8° (Epoch: 16 April)

Event Time Altitude Azimuth Distance (km) Brightness Sun altitude
Rises 20:30:48 0° 206° (SSW) 3,392 5.4 -24.2°
Reaches altitude 10° 20:33:14 10° 206° (SSW) 2,464 4.6 -24.6°
Maximum altitude 20:38:54 85° 118° (ESE) 862 2.1 -25.4°
Drops below altitude 10° 20:44:39 10° 32° (NNE) 2,499 4.6 -26.2°
Sets 20:47:08 0° 32° (NNE) 3,443 5.3 -26.5°
